Location: Boiro
(42.6475°N, 8.8834°W)
Time: 08:49:05
(UTC+01:00)

Transit 4A - Pass Details

Date: 30 September 2023
Orbit: 864 x 979 km, 66.8° (Epoch: 02 December)

Event Time Altitude Azimuth Distance (km) Brightness Sun altitude
Rises 21:22:43 0° 333° (NNW) 3,679 11.5 -12.5°
Reaches altitude 10° 21:25:35 10° 343° (NNW) 2,720 10.7 -13.0°
Maximum altitude 21:31:18 34° 47° (NE) 1,521 8.7 -14.0°
Enters shadow 21:34:38 21° 97° (E) 1,993 9.0 -14.6°
